カタログに戻る

METEOSAT 4 AKM

運用中MEO
NORAD 20800·ROCKET BODY·🇪🇺 EU

打ち上げ Mar 6, 1989 から Guiana Space Centre

Loading…

次のパス (今後24時間)

TLE

最新Source: Space-Track

元期: Sep 14, 2026, 13:55 UTC

1 20800U 89020E   26257.58026372 -.00000149  00000-0  00000-0 0  9999
2 20800  10.8888 330.7955 0132807 257.9380 137.7080  1.00426363117103

AllMySatでMETEOSAT 4 AKMをリアルタイム追跡

Download on the App Store